Time,TemperatureF,DewpointF,PressureIn,WindDirection,WindDirectionDegrees,WindSpeedMPH,WindSpeedGustMPH,Humidity,HourlyPrecipIn,Conditions,Clouds,dailyrainin,SoftwareType,DateUTC
2013-04-07 00:01:00,43.4,41.8,29.80,SSE,166,0.0,1.0,94,0.00,-RA,,0.00,WeatherDisplay:10.37,2013-04-07 07:01:00,
2013-04-07 00:11:00,43.3,42.0,29.78,SSE,149,0.0,0.0,95,0.00,-RA,,0.00,WeatherDisplay:10.37,2013-04-07 07:11:00,
2013-04-07 00:16:00,43.3,42.0,29.78,SSE,149,0.0,0.0,95,0.00,-RA,,0.00,WeatherDisplay:10.37,2013-04-07 07:16:00,
2013-04-07 00:21:00,43.2,41.9,29.77,SSE,149,0.0,0.0,95,0.00,-RA,,0.00,WeatherDisplay:10.37,2013-04-07 07:21:00,
2013-04-07 00:26:00,43.1,41.8,29.76,SSE,149,0.0,0.0,95,0.00,-RA,,0.00,WeatherDisplay:10.37,2013-04-07 07:26:00,
2013-04-07 00:31:00,42.9,41.6,29.75,SSE,148,0.0,0.0,95,0.00,-RA,,0.00,WeatherDisplay:10.37,2013-04-07 07:31:00,
2013-04-07 00:46:00,42.4,41.1,29.74,SE,135,0.0,1.0,95,0.00,-RA,,0.00,WeatherDisplay:10.37,2013-04-07 07:46:00,
2013-04-07 00:51:00,42.3,41.0,29.73,SE,140,0.0,1.0,95,0.00,-RA,,0.00,WeatherDisplay:10.37,2013-04-07 07:51:00,
2013-04-07 01:06:00,42.2,40.9,29.71,SE,146,0.0,0.0,95,0.00,OVC,,0.00,WeatherDisplay:10.37,2013-04-07 08:06:00,
2013-04-07 01:11:00,42.1,40.8,29.70,SE,146,0.0,1.0,95,0.00,OVC,,0.00,WeatherDisplay:10.37,2013-04-07 08:11:00,
2013-04-07 01:16:00,42.0,40.7,29.69,SE,145,0.0,1.0,95,0.00,OVC,,0.00,WeatherDisplay:10.37,2013-04-07 08:16:00,
2013-04-07 01:21:00,42.0,40.9,29.69,SE,145,0.0,0.0,96,0.00,OVC,,0.00,WeatherDisplay:10.37,2013-04-07 08:21:00,
2013-04-07 01:26:00,42.0,40.9,29.69,SE,145,0.0,0.0,96,0.00,OVC,,0.00,WeatherDisplay:10.37,2013-04-07 08:26:00,
2013-04-07 01:31:00,41.9,40.8,29.68,SE,145,0.0,0.0,96,0.00,OVC,,0.00,WeatherDisplay:10.37,2013-04-07 08:31:00,
2013-04-07 01:36:00,41.9,40.8,29.68,SE,145,0.0,0.0,96,0.00,OVC,,0.00,WeatherDisplay:10.37,2013-04-07 08:36:00,
2013-04-07 01:46:00,41.8,40.7,29.67,SE,145,0.0,1.0,96,0.00,OVC,,0.00,WeatherDisplay:10.37,2013-04-07 08:46:00,
2013-04-07 01:51:00,41.8,40.7,29.67,SE,145,0.0,0.0,96,0.00,OVC,,0.00,WeatherDisplay:10.37,2013-04-07 08:51:00,
2013-04-07 01:56:00,41.8,40.7,29.66,SE,145,0.0,0.0,96,0.00,OVC,,0.00,WeatherDisplay:10.37,2013-04-07 08:56:00,
2013-04-07 02:06:00,41.8,40.7,29.66,SE,145,0.0,0.0,96,0.00,-RA,,0.01,WeatherDisplay:10.37,2013-04-07 09:06:00,
2013-04-07 02:11:00,41.8,40.7,29.65,SE,145,0.0,0.0,96,0.00,-RA,,0.01,WeatherDisplay:10.37,2013-04-07 09:11:00,
2013-04-07 02:26:00,41.9,40.8,29.64,East,101,0.0,2.0,96,0.01,-RA,,0.02,WeatherDisplay:10.37,2013-04-07 09:26:00,
2013-04-07 02:31:00,42.0,40.9,29.64,ESE,103,1.0,2.0,96,0.01,-RA,,0.03,WeatherDisplay:10.37,2013-04-07 09:31:00,
2013-04-07 02:36:00,41.9,40.8,29.63,East,101,0.0,0.0,96,0.00,-RA,,0.03,WeatherDisplay:10.37,2013-04-07 09:36:00,
2013-04-07 02:41:00,41.9,40.8,29.63,ESE,117,0.0,1.0,96,0.00,-RA,,0.03,WeatherDisplay:10.37,2013-04-07 09:41:00,
2013-04-07 02:46:00,41.8,40.7,29.62,SE,145,0.0,0.0,96,0.01,-RA,,0.04,WeatherDisplay:10.37,2013-04-07 09:46:00,
2013-04-07 02:56:00,41.8,40.7,29.61,SSE,147,0.0,1.0,96,0.01,-RA,,0.05,WeatherDisplay:10.37,2013-04-07 09:56:00,
2013-04-07 03:06:00,41.8,40.7,29.60,SE,146,0.0,0.0,96,0.01,-RA,,0.06,WeatherDisplay:10.37,2013-04-07 10:06:00,
2013-04-07 03:11:00,41.7,40.6,29.60,SE,146,0.0,1.0,96,0.00,-RA,,0.06,WeatherDisplay:10.37,2013-04-07 10:11:00,
2013-04-07 03:16:00,41.7,40.9,29.59,SE,146,0.0,0.0,97,0.01,-RA,,0.07,WeatherDisplay:10.37,2013-04-07 10:16:00,
2013-04-07 03:21:00,41.7,40.9,29.59,SSE,151,0.0,0.0,97,0.01,-RA,,0.08,WeatherDisplay:10.37,2013-04-07 10:21:00,
2013-04-07 03:31:00,41.7,40.9,29.58,East,91,0.0,1.0,97,0.01,-RA,,0.10,WeatherDisplay:10.37,2013-04-07 10:31:00,
2013-04-07 03:36:00,41.6,40.8,29.58,East,88,0.0,2.0,97,0.01,-RA,,0.11,WeatherDisplay:10.37,2013-04-07 10:36:00,
2013-04-07 03:41:00,41.6,40.8,29.58,ENE,58,1.0,2.0,97,0.01,-RA,,0.12,WeatherDisplay:10.37,2013-04-07 10:41:00,
2013-04-07 03:46:00,41.5,40.7,29.58,NNE,26,0.0,1.0,97,0.00,-RA,,0.12,WeatherDisplay:10.37,2013-04-07 10:46:00,
2013-04-07 03:51:00,41.5,40.7,29.57,NNE,14,0.0,4.0,97,0.01,-RA,,0.13,WeatherDisplay:10.37,2013-04-07 10:51:00,
2013-04-07 04:06:00,41.2,40.5,29.56,North,360,0.0,3.0,97,0.02,RA,,0.17,WeatherDisplay:10.37,2013-04-07 11:06:00,
2013-04-07 04:11:00,41.3,40.5,29.56,North,2,0.0,2.0,97,0.01,RA,,0.18,WeatherDisplay:10.37,2013-04-07 11:11:00,
2013-04-07 04:16:00,41.3,40.5,29.55,North,5,1.0,4.0,97,0.01,RA,,0.19,WeatherDisplay:10.37,2013-04-07 11:16:00,
2013-04-07 04:21:00,41.3,40.5,29.55,NNE,33,0.0,2.0,97,0.01,RA,,0.20,WeatherDisplay:10.37,2013-04-07 11:21:00,
2013-04-07 04:31:00,41.1,40.4,29.54,North,6,0.0,2.0,97,0.01,-RA,,0.22,WeatherDisplay:10.37,2013-04-07 11:31:00,
2013-04-07 04:36:00,41.1,40.3,29.54,NNE,14,0.0,3.0,97,0.01,-RA,,0.23,WeatherDisplay:10.37,2013-04-07 11:36:00,
2013-04-07 04:41:00,41.1,40.3,29.54,ENE,67,2.0,5.0,97,0.01,-RA,,0.24,WeatherDisplay:10.37,2013-04-07 11:41:00,
2013-04-07 04:46:00,41.0,40.2,29.53,NE,38,0.0,2.0,97,0.01,-RA,,0.25,WeatherDisplay:10.37,2013-04-07 11:46:00,
2013-04-07 04:56:00,41.0,40.2,29.53,North,1,1.0,6.0,97,0.01,-RA,,0.28,WeatherDisplay:10.37,2013-04-07 11:56:00,
2013-04-07 05:01:00,40.9,40.1,29.53,North,351,1.0,4.0,97,0.01,-RA,,0.29,WeatherDisplay:10.37,2013-04-07 12:01:00,
2013-04-07 05:11:00,40.9,40.1,29.52,ENE,72,0.0,3.0,97,0.02,-RA,,0.32,WeatherDisplay:10.37,2013-04-07 12:11:00,
2013-04-07 05:16:00,40.9,40.1,29.52,North,4,1.0,4.0,97,0.02,-RA,,0.34,WeatherDisplay:10.37,2013-04-07 12:16:00,
2013-04-07 05:21:00,40.9,40.1,29.52,North,351,0.0,2.0,97,0.01,-RA,,0.35,WeatherDisplay:10.37,2013-04-07 12:21:00,
2013-04-07 05:26:00,40.9,40.1,29.52,NNW,346,0.0,3.0,97,0.01,-RA,,0.36,WeatherDisplay:10.37,2013-04-07 12:26:00,
2013-04-07 05:31:00,40.9,40.1,29.51,NNW,346,1.0,3.0,97,0.02,-RA,,0.38,WeatherDisplay:10.37,2013-04-07 12:31:00,
2013-04-07 05:36:00,40.9,40.1,29.51,NNE,31,1.0,5.0,97,0.01,-RA,,0.39,WeatherDisplay:10.37,2013-04-07 12:36:00,
2013-04-07 05:46:00,40.9,40.1,29.51,ESE,113,1.0,4.0,97,0.02,-RA,,0.42,WeatherDisplay:10.37,2013-04-07 12:46:00,
2013-04-07 05:51:00,40.9,40.1,29.51,East,89,0.0,3.0,97,0.02,-RA,,0.44,WeatherDisplay:10.37,2013-04-07 12:51:00,
2013-04-07 06:01:00,40.9,40.1,29.51,NNE,15,0.0,1.0,97,0.02,RA,,0.47,WeatherDisplay:10.37,2013-04-07 13:01:00,
2013-04-07 06:11:00,40.9,40.1,29.51,North,354,0.0,1.0,97,0.02,RA,,0.51,WeatherDisplay:10.37,2013-04-07 13:11:00,
2013-04-07 06:26:00,40.6,39.8,29.51,North,352,0.0,2.0,97,0.01,RA,,0.57,WeatherDisplay:10.37,2013-04-07 13:26:00,
2013-04-07 06:36:00,40.3,39.5,29.52,NNE,25,1.0,3.0,97,0.01,-RA,,0.59,WeatherDisplay:10.37,2013-04-07 13:36:00,
2013-04-07 06:46:00,39.9,39.1,29.52,NW,312,2.0,6.0,97,0.01,-RA,,0.61,WeatherDisplay:10.37,2013-04-07 13:46:00,
2013-04-07 06:56:00,39.0,38.0,29.53,NW,318,1.0,3.0,96,0.01,-RA,,0.63,WeatherDisplay:10.37,2013-04-07 13:56:00,
2013-04-07 07:06:00,38.6,37.6,29.54,North,11,0.0,6.0,96,0.02,-RA,,0.66,WeatherDisplay:10.37,2013-04-07 14:06:00,
2013-04-07 07:11:00,38.4,37.4,29.54,WNW,292,1.0,6.0,96,0.00,-RA,,0.66,WeatherDisplay:10.37,2013-04-07 14:11:00,
2013-04-07 07:16:00,38.3,37.3,29.54,WNW,294,0.0,1.0,96,0.01,-RA,,0.67,WeatherDisplay:10.37,2013-04-07 14:16:00,
2013-04-07 07:21:00,38.3,37.3,29.55,NW,324,1.0,3.0,96,0.00,-RA,,0.67,WeatherDisplay:10.37,2013-04-07 14:21:00,
2013-04-07 07:26:00,38.4,37.6,29.55,WNW,296,1.0,2.0,97,0.01,-RA,,0.68,WeatherDisplay:10.37,2013-04-07 14:26:00,
2013-04-07 07:31:00,38.4,37.6,29.55,WNW,285,0.0,2.0,97,0.00,-RA,,0.68,WeatherDisplay:10.37,2013-04-07 14:31:00,
2013-04-07 07:36:00,38.4,37.6,29.56,WNW,282,0.0,1.0,97,0.00,-RA,,0.68,WeatherDisplay:10.37,2013-04-07 14:36:00,
2013-04-07 07:41:00,38.6,37.8,29.56,West,278,0.0,1.0,97,0.00,-RA,,0.68,WeatherDisplay:10.37,2013-04-07 14:41:00,
2013-04-07 07:46:00,38.7,37.9,29.56,West,277,0.0,1.0,97,0.01,-RA,,0.69,WeatherDisplay:10.37,2013-04-07 14:46:00,
2013-04-07 07:51:00,38.9,38.1,29.57,West,277,0.0,1.0,97,0.00,-RA,,0.69,WeatherDisplay:10.37,2013-04-07 14:51:00,
2013-04-07 07:56:00,39.1,38.3,29.57,West,269,0.0,1.0,97,0.00,-RA,,0.69,WeatherDisplay:10.37,2013-04-07 14:56:00,
2013-04-07 08:11:00,39.7,38.9,29.58,WSW,248,0.0,1.0,97,0.00,-RA,,0.69,WeatherDisplay:10.37,2013-04-07 15:11:00,
2013-04-07 08:16:00,39.8,39.0,29.58,WSW,237,0.0,1.0,97,0.00,-RA,,0.69,WeatherDisplay:10.37,2013-04-07 15:16:00,
2013-04-07 08:21:00,39.9,39.1,29.59,WSW,243,0.0,2.0,97,0.00,-RA,,0.69,WeatherDisplay:10.37,2013-04-07 15:21:00,
2013-04-07 08:26:00,40.1,39.3,29.60,West,264,2.0,7.0,97,0.00,-RA,,0.69,WeatherDisplay:10.37,2013-04-07 15:26:00,
2013-04-07 08:31:00,40.2,39.4,29.60,West,266,2.0,6.0,97,0.00,-RA,,0.69,WeatherDisplay:10.37,2013-04-07 15:31:00,
2013-04-07 08:41:00,40.3,39.5,29.61,West,280,0.0,5.0,97,0.00,-RA,,0.69,WeatherDisplay:10.37,2013-04-07 15:41:00,
2013-04-07 08:46:00,40.4,39.6,29.61,West,275,1.0,3.0,97,0.01,-RA,,0.70,WeatherDisplay:10.37,2013-04-07 15:46:00,
2013-04-07 08:56:00,40.7,39.9,29.62,WSW,239,0.0,1.0,97,0.00,-RA,,0.70,WeatherDisplay:10.37,2013-04-07 15:56:00,
2013-04-07 09:01:00,40.9,40.1,29.63,South,177,0.0,2.0,97,0.00,-RA,,0.70,WeatherDisplay:10.37,2013-04-07 16:01:00,
2013-04-07 09:11:00,41.3,40.5,29.63,WSW,240,0.0,2.0,97,0.00,-RA,,0.70,WeatherDisplay:10.37,2013-04-07 16:11:00,
2013-04-07 09:26:00,41.3,40.2,29.64,SW,236,2.0,6.0,96,0.00,OVC,,0.71,WeatherDisplay:10.37,2013-04-07 16:26:00,
2013-04-07 09:31:00,41.2,40.2,29.65,West,259,1.0,3.0,96,0.00,OVC,,0.71,WeatherDisplay:10.37,2013-04-07 16:31:00,
2013-04-07 09:36:00,41.2,40.1,29.65,WSW,250,1.0,6.0,96,0.01,RA,,0.72,WeatherDisplay:10.37,2013-04-07 16:36:00,
2013-04-07 09:41:00,41.3,40.2,29.65,SW,232,0.0,4.0,96,0.00,RA,,0.72,WeatherDisplay:10.37,2013-04-07 16:41:00,
2013-04-07 09:46:00,41.4,40.6,29.66,SSW,199,0.0,2.0,97,0.00,OVC,,0.72,WeatherDisplay:10.37,2013-04-07 16:46:00,
2013-04-07 09:51:00,41.4,40.4,29.66,WSW,247,1.0,2.0,96,0.00,OVC,,0.72,WeatherDisplay:10.37,2013-04-07 16:51:00,
2013-04-07 10:01:00,41.4,40.3,29.67,West,259,0.0,3.0,96,0.00,-RA,,0.73,WeatherDisplay:10.37,2013-04-07 17:01:00,
2013-04-07 10:11:00,41.5,40.5,29.67,WSW,249,0.0,4.0,96,0.01,-RA,,0.74,WeatherDisplay:10.37,2013-04-07 17:11:00,
2013-04-07 10:16:00,41.7,40.6,29.67,West,260,0.0,1.0,96,0.00,-RA,,0.74,WeatherDisplay:10.37,2013-04-07 17:16:00,
2013-04-07 10:21:00,41.9,40.9,29.67,WNW,282,0.0,1.0,96,0.00,-RA,,0.74,WeatherDisplay:10.37,2013-04-07 17:21:00,
2013-04-07 10:26:00,42.2,41.4,29.68,West,278,0.0,2.0,97,0.00,-RA,,0.74,WeatherDisplay:10.37,2013-04-07 17:26:00,
2013-04-07 10:31:00,42.3,41.3,29.68,SSW,210,0.0,2.0,96,0.00,-RA,,0.74,WeatherDisplay:10.37,2013-04-07 17:31:00,
2013-04-07 10:36:00,42.4,41.3,29.68,South,190,0.0,0.0,96,0.00,-RA,,0.74,WeatherDisplay:10.37,2013-04-07 17:36:00,
2013-04-07 10:46:00,42.1,40.8,29.69,WSW,242,2.0,5.0,95,0.00,-RA,,0.75,WeatherDisplay:10.37,2013-04-07 17:46:00,
2013-04-07 10:51:00,42.1,40.8,29.69,WSW,244,1.0,2.0,95,0.00,-RA,,0.75,WeatherDisplay:10.37,2013-04-07 17:51:00,
2013-04-07 10:56:00,42.3,41.2,29.70,SW,219,0.0,3.0,96,0.01,-RA,,0.76,WeatherDisplay:10.37,2013-04-07 17:56:00,
2013-04-07 11:06:00,42.1,41.0,29.70,WSW,243,0.0,5.0,96,0.01,-RA,,0.77,WeatherDisplay:10.37,2013-04-07 18:06:00,
2013-04-07 11:11:00,42.2,41.1,29.71,WSW,241,1.0,4.0,96,0.00,-RA,,0.77,WeatherDisplay:10.37,2013-04-07 18:11:00,
2013-04-07 11:16:00,42.2,41.1,29.71,SW,220,1.0,4.0,96,0.01,-RA,,0.78,WeatherDisplay:10.37,2013-04-07 18:16:00,
2013-04-07 11:21:00,41.7,40.4,29.71,SW,222,2.0,9.0,95,0.00,-RA,,0.78,WeatherDisplay:10.37,2013-04-07 18:21:00,
2013-04-07 11:26:00,41.6,40.5,29.71,SW,230,1.0,4.0,96,0.01,-RA,,0.79,WeatherDisplay:10.37,2013-04-07 18:26:00,
2013-04-07 11:36:00,41.3,40.0,29.72,SW,217,1.0,6.0,95,0.00,-RA,,0.79,WeatherDisplay:10.37,2013-04-07 18:36:00,
2013-04-07 11:41:00,41.2,39.8,29.72,SW,215,1.0,4.0,95,0.01,-RA,,0.80,WeatherDisplay:10.37,2013-04-07 18:41:00,
2013-04-07 11:46:00,41.2,40.1,29.73,SW,216,1.0,5.0,96,0.00,-RA,,0.80,WeatherDisplay:10.37,2013-04-07 18:46:00,
2013-04-07 11:56:00,41.4,40.3,29.73,SSW,201,0.0,2.0,96,0.01,-RA,,0.81,WeatherDisplay:10.37,2013-04-07 18:56:00,
2013-04-07 12:01:00,41.3,40.0,29.73,South,189,1.0,3.0,95,0.00,-RA,,0.81,WeatherDisplay:10.37,2013-04-07 19:01:00,
2013-04-07 12:11:00,41.1,39.8,29.73,South,174,1.0,5.0,95,0.00,-RA,,0.81,WeatherDisplay:10.37,2013-04-07 19:11:00,
2013-04-07 12:16:00,40.8,39.2,29.74,SSW,213,0.0,6.0,94,0.00,-RA,,0.81,WeatherDisplay:10.37,2013-04-07 19:16:00,
2013-04-07 12:26:00,40.9,39.6,29.74,SSE,165,1.0,4.0,95,0.00,-RA,,0.81,WeatherDisplay:10.37,2013-04-07 19:26:00,
2013-04-07 12:36:00,40.9,39.3,29.74,SSE,165,1.0,4.0,94,0.00,-RA,,0.82,WeatherDisplay:10.37,2013-04-07 19:36:00,
2013-04-07 12:46:00,41.2,39.6,29.74,SE,135,1.0,3.0,94,0.00,-RA,,0.82,WeatherDisplay:10.37,2013-04-07 19:46:00,
2013-04-07 12:51:00,41.4,39.8,29.74,SE,136,1.0,2.0,94,0.00,-RA,,0.82,WeatherDisplay:10.37,2013-04-07 19:51:00,
2013-04-07 13:01:00,41.9,40.6,29.75,SE,125,0.0,2.0,95,0.00,-RA,,0.82,WeatherDisplay:10.37,2013-04-07 20:01:00,
2013-04-07 13:11:00,42.1,40.8,29.75,ESE,114,0.0,1.0,95,0.00,-RA,,0.83,WeatherDisplay:10.37,2013-04-07 20:11:00,
2013-04-07 13:16:00,42.0,40.4,29.75,SE,125,0.0,2.0,94,0.00,-RA,,0.83,WeatherDisplay:10.37,2013-04-07 20:16:00,
2013-04-07 13:26:00,41.8,39.9,29.76,SE,127,1.0,3.0,93,0.01,-RA,,0.84,WeatherDisplay:10.37,2013-04-07 20:26:00,
2013-04-07 13:31:00,41.7,39.8,29.76,SE,142,1.0,2.0,93,0.00,-RA,,0.84,WeatherDisplay:10.37,2013-04-07 20:31:00,
2013-04-07 13:41:00,42.4,41.1,29.76,SSE,152,1.0,3.0,95,0.00,-RA,,0.84,WeatherDisplay:10.37,2013-04-07 20:41:00,
2013-04-07 13:46:00,42.4,40.8,29.76,East,97,0.0,2.0,94,0.00,-RA,,0.85,WeatherDisplay:10.37,2013-04-07 20:46:00,
2013-04-07 13:51:00,42.9,41.6,29.76,East,92,1.0,2.0,95,0.01,-RA,,0.85,WeatherDisplay:10.37,2013-04-07 20:51:00,
2013-04-07 14:01:00,43.3,41.7,29.76,SE,146,1.0,2.0,94,0.00,-RA,,0.85,WeatherDisplay:10.37,2013-04-07 21:01:00,
2013-04-07 14:11:00,43.4,41.5,29.76,SE,140,1.0,2.0,93,0.00,-RA,,0.85,WeatherDisplay:10.37,2013-04-07 21:11:00,
2013-04-07 14:16:00,42.9,41.3,29.76,ESE,105,0.0,3.0,94,0.01,-RA,,0.86,WeatherDisplay:10.37,2013-04-07 21:16:00,
2013-04-07 14:21:00,42.9,41.3,29.77,NNE,19,0.0,1.0,94,0.00,-RA,,0.86,WeatherDisplay:10.37,2013-04-07 21:21:00,
2013-04-07 14:31:00,43.1,41.5,29.77,ENE,77,0.0,1.0,94,0.00,-RA,,0.86,WeatherDisplay:10.37,2013-04-07 21:31:00,
2013-04-07 14:41:00,42.9,41.6,29.77,SE,126,1.0,2.0,95,0.00,-RA,,0.86,WeatherDisplay:10.37,2013-04-07 21:41:00,
2013-04-07 14:46:00,43.1,42.0,29.77,SE,130,0.0,2.0,96,0.00,-RA,,0.86,WeatherDisplay:10.37,2013-04-07 21:46:00,
2013-04-07 14:56:00,43.0,41.7,29.77,SE,140,1.0,3.0,95,0.00,-RA,,0.86,WeatherDisplay:10.37,2013-04-07 21:56:00,
2013-04-07 15:06:00,43.0,41.6,29.77,SE,131,0.0,2.0,95,0.01,RA,,0.87,WeatherDisplay:10.37,2013-04-07 22:06:00,
2013-04-07 15:11:00,43.2,42.1,29.77,SE,143,0.0,2.0,96,0.00,RA,,0.87,WeatherDisplay:10.37,2013-04-07 22:11:00,
2013-04-07 15:16:00,43.2,41.8,29.77,SE,141,1.0,2.0,95,0.00,OVC,,0.87,WeatherDisplay:10.37,2013-04-07 22:16:00,
2013-04-07 15:21:00,43.3,42.2,29.77,ENE,67,0.0,1.0,96,0.00,OVC,,0.87,WeatherDisplay:10.37,2013-04-07 22:21:00,
2013-04-07 15:26:00,43.7,42.7,29.77,NNE,32,0.0,1.0,96,0.00,OVC,,0.87,WeatherDisplay:10.37,2013-04-07 22:26:00,
2013-04-07 15:31:00,44.0,42.9,29.78,East,90,0.0,1.0,96,0.00,OVC,,0.87,WeatherDisplay:10.37,2013-04-07 22:31:00,
2013-04-07 15:41:00,44.4,43.1,29.78,NNW,342,0.0,1.0,95,0.00,OVC,,0.87,WeatherDisplay:10.37,2013-04-07 22:41:00,
2013-04-07 15:46:00,44.4,42.8,29.78,SSE,154,0.0,3.0,94,0.00,OVC,,0.87,WeatherDisplay:10.37,2013-04-07 22:46:00,
2013-04-07 15:56:00,44.6,43.3,29.78,SE,131,0.0,1.0,95,0.00,OVC,,0.87,WeatherDisplay:10.37,2013-04-07 22:56:00,
2013-04-07 16:01:00,44.7,43.4,29.79,ESE,122,0.0,1.0,95,0.00,-RA,,0.87,WeatherDisplay:10.37,2013-04-07 23:01:00,
2013-04-07 16:11:00,44.3,42.7,29.79,ESE,112,0.0,2.0,94,0.00,-RA,,0.87,WeatherDisplay:10.37,2013-04-07 23:11:00,
2013-04-07 16:16:00,44.1,42.5,29.79,ESE,123,0.0,1.0,94,0.00,-RA,,0.87,WeatherDisplay:10.37,2013-04-07 23:16:00,
2013-04-07 16:26:00,44.0,42.7,29.79,South,177,0.0,0.0,95,0.00,-RA,,0.87,WeatherDisplay:10.37,2013-04-07 23:26:00,
2013-04-07 16:36:00,44.1,42.8,29.79,South,175,0.0,1.0,95,0.00,-RA,,0.87,WeatherDisplay:10.37,2013-04-07 23:36:00,
2013-04-07 16:41:00,44.0,42.6,29.79,South,169,0.0,1.0,95,0.01,-RA,,0.88,WeatherDisplay:10.37,2013-04-07 23:41:00,
2013-04-07 16:46:00,44.0,43.0,29.79,SE,142,0.0,1.0,96,0.00,-RA,,0.88,WeatherDisplay:10.37,2013-04-07 23:46:00,
2013-04-07 16:51:00,44.1,43.0,29.79,SE,137,0.0,3.0,96,0.00,-RA,,0.88,WeatherDisplay:10.37,2013-04-07 23:51:00,
2013-04-07 17:06:00,43.7,42.1,29.80,SSE,150,1.0,3.0,94,0.00,OVC,,0.89,WeatherDisplay:10.37,2013-04-08 00:06:00,
2013-04-07 17:11:00,43.5,41.9,29.79,East,97,1.0,4.0,94,0.00,OVC,,0.89,WeatherDisplay:10.37,2013-04-08 00:11:00,
2013-04-07 17:16:00,43.6,42.2,29.79,ENE,57,0.0,3.0,95,0.00,OVC,,0.89,WeatherDisplay:10.37,2013-04-08 00:16:00,
2013-04-07 17:26:00,43.7,42.4,29.79,SSE,157,0.0,1.0,95,0.00,OVC,,0.89,WeatherDisplay:10.37,2013-04-08 00:26:00,
2013-04-07 17:36:00,43.8,42.5,29.80,SE,140,1.0,4.0,95,0.00,OVC,,0.89,WeatherDisplay:10.37,2013-04-08 00:36:00,
2013-04-07 17:41:00,43.7,42.4,29.80,ESE,113,0.0,3.0,95,0.00,OVC,,0.89,WeatherDisplay:10.37,2013-04-08 00:41:00,
2013-04-07 17:46:00,43.8,42.5,29.80,ESE,111,1.0,1.0,95,0.00,OVC,,0.89,WeatherDisplay:10.37,2013-04-08 00:46:00,
2013-04-07 17:51:00,43.9,42.6,29.80,SE,138,0.0,1.0,95,0.00,OVC,,0.89,WeatherDisplay:10.37,2013-04-08 00:51:00,
2013-04-07 17:56:00,44.0,42.7,29.80,SSE,151,0.0,0.0,95,0.00,OVC,,0.89,WeatherDisplay:10.37,2013-04-08 00:56:00,
2013-04-07 18:06:00,43.9,42.6,29.80,SE,128,1.0,2.0,95,0.00,OVC,,0.89,WeatherDisplay:10.37,2013-04-08 01:06:00,
2013-04-07 18:11:00,44.0,42.7,29.80,SE,132,0.0,2.0,95,0.00,OVC,,0.89,WeatherDisplay:10.37,2013-04-08 01:11:00,
2013-04-07 18:16:00,44.0,42.7,29.80,SE,124,0.0,1.0,95,0.00,-RA,,0.89,WeatherDisplay:10.37,2013-04-08 01:16:00,
2013-04-07 18:21:00,44.2,42.9,29.80,SE,135,0.0,1.0,95,0.00,-RA,,0.89,WeatherDisplay:10.37,2013-04-08 01:21:00,
2013-04-07 18:26:00,44.1,42.8,29.80,SE,135,0.0,1.0,95,0.00,-RA,,0.89,WeatherDisplay:10.37,2013-04-08 01:26:00,
2013-04-07 18:31:00,44.0,42.7,29.80,SE,135,0.0,1.0,95,0.00,-RA,,0.89,WeatherDisplay:10.37,2013-04-08 01:31:00,
2013-04-07 18:36:00,43.9,42.3,29.81,SE,134,0.0,1.0,94,0.00,-RA,,0.89,WeatherDisplay:10.37,2013-04-08 01:36:00,
2013-04-07 18:41:00,43.8,42.2,29.81,SE,132,0.0,1.0,94,0.00,-RA,,0.89,WeatherDisplay:10.37,2013-04-08 01:41:00,
2013-04-07 18:46:00,43.7,42.1,29.81,SE,137,0.0,1.0,94,0.00,-RA,,0.89,WeatherDisplay:10.37,2013-04-08 01:46:00,
2013-04-07 18:51:00,43.7,42.1,29.81,SE,140,0.0,1.0,94,0.00,-RA,,0.89,WeatherDisplay:10.37,2013-04-08 01:51:00,
2013-04-07 18:56:00,43.6,42.0,29.81,SE,141,0.0,1.0,94,0.00,-RA,,0.89,WeatherDisplay:10.37,2013-04-08 01:56:00,
2013-04-07 19:01:00,43.5,41.9,29.81,SE,142,0.0,1.0,94,0.00,-RA,,0.89,WeatherDisplay:10.37,2013-04-08 02:01:00,
2013-04-07 19:11:00,43.4,42.1,29.81,SE,141,0.0,0.0,95,0.00,-RA,,0.89,WeatherDisplay:10.37,2013-04-08 02:11:00,
2013-04-07 19:16:00,43.3,42.0,29.81,SE,141,0.0,0.0,95,0.00,-RA,,0.89,WeatherDisplay:10.37,2013-04-08 02:16:00,
2013-04-07 19:21:00,43.2,41.9,29.81,SE,141,0.0,0.0,95,0.00,-RA,,0.89,WeatherDisplay:10.37,2013-04-08 02:21:00,
2013-04-07 19:26:00,43.1,41.7,29.81,SE,141,0.0,0.0,95,0.00,-RA,,0.89,WeatherDisplay:10.37,2013-04-08 02:26:00,
2013-04-07 19:31:00,43.0,41.6,29.82,SE,141,0.0,0.0,95,0.00,-RA,,0.89,WeatherDisplay:10.37,2013-04-08 02:31:00,
2013-04-07 19:36:00,42.9,41.6,29.82,SE,141,0.0,0.0,95,0.00,-RA,,0.89,WeatherDisplay:10.37,2013-04-08 02:36:00,
2013-04-07 19:46:00,42.9,41.8,29.82,SE,141,0.0,0.0,96,0.00,-RA,,0.89,WeatherDisplay:10.37,2013-04-08 02:46:00,
2013-04-07 19:51:00,42.8,41.8,29.82,SE,141,0.0,0.0,96,0.00,-RA,,0.89,WeatherDisplay:10.37,2013-04-08 02:51:00,
2013-04-07 19:56:00,42.8,41.7,29.82,SE,141,0.0,0.0,96,0.00,-RA,,0.89,WeatherDisplay:10.37,2013-04-08 02:56:00,
2013-04-07 20:11:00,42.8,41.7,29.83,SE,141,0.0,0.0,96,0.00,OVC,,0.89,WeatherDisplay:10.37,2013-04-08 03:11:00,
2013-04-07 20:16:00,42.9,41.8,29.83,SE,141,0.0,1.0,96,0.00,OVC,,0.89,WeatherDisplay:10.37,2013-04-08 03:16:00,
2013-04-07 20:26:00,42.8,42.1,29.83,SE,141,0.0,0.0,97,0.00,OVC,,0.89,WeatherDisplay:10.37,2013-04-08 03:26:00,
2013-04-07 20:31:00,42.9,42.1,29.84,SE,141,0.0,0.0,97,0.00,OVC,,0.89,WeatherDisplay:10.37,2013-04-08 03:31:00,
2013-04-07 20:41:00,42.9,42.1,29.84,WSW,254,0.0,0.0,97,0.00,OVC,,0.89,WeatherDisplay:10.37,2013-04-08 03:41:00,
2013-04-07 20:46:00,42.9,42.1,29.84,West,262,0.0,0.0,97,0.00,OVC,,0.89,WeatherDisplay:10.37,2013-04-08 03:46:00,
2013-04-07 21:01:00,42.9,42.1,29.84,West,262,0.0,0.0,97,0.00,-RA,,0.89,WeatherDisplay:10.37,2013-04-08 04:01:00,
2013-04-07 21:11:00,43.0,42.2,29.85,West,262,0.0,1.0,97,0.00,-RA,,0.89,WeatherDisplay:10.37,2013-04-08 04:11:00,
2013-04-07 21:16:00,43.1,42.3,29.85,West,262,0.0,0.0,97,0.00,-RA,,0.89,WeatherDisplay:10.37,2013-04-08 04:16:00,
2013-04-07 21:21:00,43.1,42.3,29.85,WSW,255,0.0,1.0,97,0.00,-RA,,0.89,WeatherDisplay:10.37,2013-04-08 04:21:00,
2013-04-07 21:26:00,43.1,42.3,29.85,SW,224,0.0,1.0,97,0.01,-RA,,0.90,WeatherDisplay:10.37,2013-04-08 04:26:00,
2013-04-07 21:31:00,43.1,42.3,29.85,South,173,0.0,0.0,97,0.00,-RA,,0.90,WeatherDisplay:10.37,2013-04-08 04:31:00,
2013-04-07 21:41:00,42.9,42.1,29.86,South,173,0.0,0.0,97,0.00,-RA,,0.90,WeatherDisplay:10.37,2013-04-08 04:41:00,
2013-04-07 21:46:00,42.8,42.0,29.86,South,173,0.0,0.0,97,0.00,-RA,,0.90,WeatherDisplay:10.37,2013-04-08 04:46:00,
2013-04-07 21:56:00,42.8,42.0,29.86,South,169,0.0,1.0,97,0.00,-RA,,0.90,WeatherDisplay:10.37,2013-04-08 04:56:00,
2013-04-07 22:06:00,42.8,42.0,29.86,SSE,153,0.0,0.0,97,0.00,OVC,,0.90,WeatherDisplay:10.37,2013-04-08 05:06:00,
2013-04-07 22:16:00,42.8,42.0,29.87,SSE,153,0.0,0.0,97,0.00,OVC,,0.90,WeatherDisplay:10.37,2013-04-08 05:16:00,
2013-04-07 22:26:00,42.8,42.0,29.87,SSE,153,0.0,0.0,97,0.00,OVC,,0.90,WeatherDisplay:10.37,2013-04-08 05:26:00,
2013-04-07 22:36:00,42.7,41.9,29.88,SSE,153,0.0,0.0,97,0.00,OVC,,0.90,WeatherDisplay:10.37,2013-04-08 05:36:00,
2013-04-07 22:41:00,42.7,41.9,29.88,SSE,153,0.0,0.0,97,0.00,OVC,,0.90,WeatherDisplay:10.37,2013-04-08 05:41:00,
2013-04-07 22:46:00,42.8,42.0,29.88,SSE,153,0.0,0.0,97,0.00,OVC,,0.90,WeatherDisplay:10.37,2013-04-08 05:46:00,
2013-04-07 22:51:00,42.8,42.0,29.88,SSE,153,0.0,0.0,97,0.00,OVC,,0.90,WeatherDisplay:10.37,2013-04-08 05:51:00,
2013-04-07 22:56:00,42.7,41.9,29.88,SSE,166,0.0,0.0,97,0.00,OVC,,0.90,WeatherDisplay:10.37,2013-04-08 05:56:00,
2013-04-07 23:01:00,42.7,41.9,29.88,South,189,0.0,0.0,97,0.00,OVC,,0.90,WeatherDisplay:10.37,2013-04-08 06:01:00,
2013-04-07 23:11:00,42.7,41.9,29.89,SSW,197,0.0,0.0,97,0.00,OVC,,0.90,WeatherDisplay:10.37,2013-04-08 06:11:00,
2013-04-07 23:21:00,42.7,41.9,29.89,SSW,197,0.0,0.0,97,0.00,RA,,0.91,WeatherDisplay:10.37,2013-04-08 06:21:00,
2013-04-07 23:26:00,42.6,41.8,29.89,SSW,202,0.0,1.0,97,0.00,OVC,,0.91,WeatherDisplay:10.37,2013-04-08 06:26:00,
2013-04-07 23:36:00,42.5,41.7,29.90,SW,222,0.0,1.0,97,0.00,OVC,,0.91,WeatherDisplay:10.37,2013-04-08 06:36:00,
2013-04-07 23:41:00,42.4,41.6,29.90,SW,234,0.0,0.0,97,0.00,OVC,,0.91,WeatherDisplay:10.37,2013-04-08 06:41:00,
2013-04-07 23:46:00,42.3,41.5,29.90,SW,236,0.0,1.0,97,0.01,RA,,0.92,WeatherDisplay:10.37,2013-04-08 06:46:00,
2013-04-07 23:56:00,42.3,41.5,29.90,SW,236,0.0,1.0,97,0.00,OVC,,0.92,WeatherDisplay:10.37,2013-04-08 06:56:00,